Tracking 29528 objects as of 12-Sep-2024
HD Live streaming from Space Station
objects crossing your sky now

COSMOS 249 DEB

Track COSMOS 249 DEB now!
10-day predictions


NORAD ID: 18602
Int'l Code: 1968-091DG
Perigee: 726.0 km
Apogee: 1,770.0 km
Inclination: 62.2 °
Period: 110.3 minutes
Semi major axis: 7619 km
RCS: 0.0163 m2 (small)
Launch date: October 20, 1968
Source: Commonwealth of Independent States (former USSR) (CIS)
Launch site: TYURATAM MISSILE AND SPACE COMPLEX (TTMTR)

Note: This is SATELLITE DEBRIS
Your satellite tracking list
Your tracking list is empty




NASA's NSSDC Master Catalog

Two Line Element Set (TLE):
1 18602U 68091DG  24255.78242181  .00007377  00000-0  72875-2 0  9997
2 18602  62.2303   8.9548 0685124 107.1941  44.4493 13.05424581561348
Source of the keplerian elements: AFSPC